GW3899 Weather Reports


Display with metric or nautical units.
time (UTC)temp
F
wind
direction
speed
MPH
gust
MPH
rain 1hr
in
rain 24hr
in
rain mn
in
humidity
%
barometer
mb
20260504205347 80 213 10.0 13.0 0.00 0.00 0.00 1 1004.6
20260504204845 80 188 7.0 8.0 0.00 0.00 0.00 1 1004.6
20260504204343 80 186 15.0 18.0 0.00 0.00 0.00 1 1004.9
20260504203842 80 201 8.0 10.0 0.00 0.00 0.00 1 1004.8
20260504203339 80 187 9.0 14.0 0.00 0.00 0.00 1 1004.7
20260504202834 80 242 10.0 11.0 0.00 0.00 0.00 1 1005.0
20260504202332 80 202 13.0 16.0 0.00 0.00 0.00 1 1004.9
20260504201828 80 219 9.0 14.0 0.00 0.00 0.00 1 1004.9
20260504201326 80 217 10.0 14.0 0.00 0.00 0.00 1 1004.7
20260504200823 80 181 7.0 7.0 0.00 0.00 0.00 1 1004.7
20260504200320 80 210 9.0 10.0 0.00 0.00 0.00 1 1004.9
20260504195816 80 213 10.0 14.0 0.00 0.00 0.00 1 1004.9
20260504195312 79 211 9.0 9.0 0.00 0.00 0.00 1 1005.1
20260504194809 80 232 8.0 13.0 0.00 0.00 0.00 1 1004.9
20260504194305 79 202 5.0 8.0 0.00 0.00 0.00 1 1004.9
20260504193801 79 183 7.0 9.0 0.00 0.00 0.00 1 1005.4
20260504193259 78 168 5.0 7.0 0.00 0.00 0.00 1 1005.4
20260504192757 77 204 5.0 8.0 0.00 0.00 0.00 1 1005.5
20260504192254 76 223 7.0 8.0 0.00 0.00 0.00 1 1005.5
20260504191753 76 173 10.0 15.0 0.00 0.00 0.00 1 1005.5
20260504191250 76 188 4.0 6.0 0.00 0.00 0.00 1 1005.7
20260504190745 75 204 4.0 6.0 0.00 0.00 0.00 1 1005.7
20260504190242 75 214 4.0 5.0 0.00 0.00 0.00 1 1005.6
20260504185738 73 189 4.0 5.0 0.00 0.00 0.00 1 1005.5
20260504185235 73 159 6.0 8.0 0.00 0.00 0.00 1 1005.4
20260504184731 74 131 3.0 3.0 0.00 0.00 0.00 1 1005.4
20260504184227 75 119 7.0 8.0 0.00 0.00 0.00 1 1006.2
20260504183723 75 188 6.0 7.0 0.00 0.00 0.00 1 1006.3
20260504183220 75 184 3.0 5.0 0.00 0.00 0.00 1 1006.3
20260504182718 75 176 3.0 5.0 0.00 0.00 0.00 1 1006.2
20260504182215 75 221 6.0 7.0 0.00 0.00 0.00 1 1006.3
20260504181713 76 211 5.0 7.0 0.00 0.00 0.00 1 1006.4
20260504181210 76 201 7.0 10.0 0.00 0.00 0.00 1 1005.8
20260504180709 76 178 5.0 7.0 0.00 0.00 0.00 1 1006.0
20260504180207 77 228 6.0 7.0 0.00 0.00 0.00 1 1005.7
20260504175704 77 209 7.0 8.0 0.00 0.00 0.00 1 1005.7
20260504175201 77 201 4.0 5.0 0.00 0.00 0.00 1 1006.0
20260504174659 77 191 10.0 11.0 0.00 0.00 0.00 1 1006.3
20260504174156 77 200 5.0 6.0 0.00 0.00 0.00 1 1006.1
20260504173653 77 203 7.0 9.0 0.00 0.00 0.00 1 1006.3
20260504173150 77 260 10.0 13.0 0.00 0.00 0.00 1 1006.3
20260504172647 77 265 13.0 16.0 0.00 0.00 0.00 1 1006.1
20260504172143 77 197 11.0 16.0 0.00 0.00 0.00 1 1006.6
20260504171639 77 199 11.0 14.0 0.00 0.00 0.00 1 1006.8
20260504171137 77 199 12.0 14.0 0.00 0.00 0.00 1 1006.6
20260504170633 77 235 12.0 14.0 0.00 0.00 0.00 1 1006.6
20260504170131 78 214 8.0 9.0 0.00 0.00 0.00 1 1006.6
20260504151015 71 232 8.0 9.0 0.00 0.00 0.00 1 1006.9
20260504150513 71 202 9.0 11.0 0.00 0.00 0.00 1 1006.7
20260504140939 66 214 12.0 14.0 0.00 0.00 0.00 1 1007.5
20260504140435 66 212 8.0 10.0 0.00 0.00 0.00 1 1007.6
20260504130400 65 174 4.0 5.0 0.00 0.00 0.00 1 1008.1
20260504110247 60 152 3.0 3.0 0.00 0.00 0.00 1 1008.6
20260504100211 61 152 1.0 2.0 0.00 0.00 0.00 1 1009.2
20260504090134 62 176 4.0 5.0 0.00 0.00 0.00 1 1009.2
20260504081604 64 219 4.0 5.0 0.00 0.00 0.00 1 1008.6
20260504081100 64 188 5.0 6.0 0.00 0.00 0.00 1 1008.7
20260504080557 64 164 7.0 9.0 0.00 0.00 0.00 1 1008.7
20260504050404 67 141 4.0 5.0 0.00 0.00 0.00 1 1010.0
20260504045901 67 167 7.0 9.0 0.00 0.00 0.00 1 1010.1
20260504045356 67 173 5.0 6.0 0.00 0.00 0.00 1 1010.2
20260504044853 67 180 5.0 6.0 0.00 0.00 0.00 1 1010.3
20260504044350 67 172 4.0 5.0 0.00 0.00 0.00 1 1010.2
20260504043848 68 200 6.0 7.0 0.00 0.00 0.00 1 1010.4
20260504043344 68 186 7.0 9.0 0.00 0.00 0.00 1 1010.4
20260504042842 68 190 3.0 5.0 0.00 0.00 0.00 1 1010.3
20260504042338 68 164 6.0 10.0 0.00 0.00 0.00 1 1010.5
20260504041834 68 198 6.0 8.0 0.00 0.00 0.00 1 1010.5
20260504041331 68 162 7.0 8.0 0.00 0.00 0.00 1 1010.8
20260504040827 68 187 5.0 6.0 0.00 0.00 0.00 1 1010.4
20260504040325 68 193 9.0 10.0 0.00 0.00 0.00 1 1010.3
20260504035820 68 139 4.0 6.0 0.00 0.00 0.00 1 1010.6
20260504035318 69 196 3.0 5.0 0.00 0.00 0.00 1 1010.5
20260504034815 69 184 5.0 6.0 0.00 0.00 0.00 1 1010.7
20260504034313 69 177 6.0 8.0 0.00 0.00 0.00 1 1010.6
20260504033810 69 124 6.0 9.0 0.00 0.00 0.00 1 1010.8
20260504033307 69 188 5.0 6.0 0.00 0.00 0.00 1 1010.9
20260504032803 69 202 3.0 3.0 0.00 0.00 0.00 1 1010.8
20260504032301 69 158 5.0 7.0 0.00 0.00 0.00 1 1010.8
20260504031757 70 190 6.0 7.0 0.00 0.00 0.00 1 1010.9
20260504031255 70 194 5.0 6.0 0.00 0.00 0.00 1 1010.8
20260504030751 70 166 6.0 9.0 0.00 0.00 0.00 1 1010.9
20260504030248 70 219 8.0 10.0 0.00 0.00 0.00 1 1010.9
20260504025744 70 199 7.0 9.0 0.00 0.00 0.00 1 1010.9
20260504025241 70 193 5.0 8.0 0.00 0.00 0.00 1 1011.0
20260504024733 70 176 4.0 5.0 0.00 0.00 0.00 1 1010.8
20260504024229 70 183 5.0 6.0 0.00 0.00 0.00 1 1010.9
20260504023726 70 198 5.0 7.0 0.00 0.00 0.00 1 1010.9
20260504023222 70 188 3.0 3.0 0.00 0.00 0.00 1 1010.9
20260504022718 70 185 5.0 8.0 0.00 0.00 0.00 1 1010.6
20260504022215 70 155 2.0 2.0 0.00 0.00 0.00 1 1010.7
20260504021712 70 180 3.0 3.0 0.00 0.00 0.00 1 1010.8
20260504021209 70 164 3.0 5.0 0.00 0.00 0.00 1 1010.8
20260504020705 71 185 7.0 8.0 0.00 0.00 0.00 1 1010.6
20260504020201 71 213 5.0 7.0 0.00 0.00 0.00 1 1010.6
20260504015659 71 176 4.0 5.0 0.00 0.00 0.00 1 1010.5
20260504015155 71 184 5.0 6.0 0.00 0.00 0.00 1 1010.7
20260504014650 71 180 5.0 8.0 0.00 0.00 0.00 1 1010.8
20260504014147 71 175 5.0 6.0 0.00 0.00 0.00 1 1010.4
20260504013645 71 196 4.0 5.0 0.00 0.00 0.00 1 1010.4
20260504013142 71 161 3.0 3.0 0.00 0.00 0.00 1 1010.5
20260504012639 72 177 5.0 6.0 0.00 0.00 0.00 1 1010.5
20260504012137 72 196 3.0 3.0 0.00 0.00 0.00 1 1010.4
20260504011633 72 191 4.0 6.0 0.00 0.00 0.00 1 1010.6
20260504011130 72 172 3.0 3.0 0.00 0.00 0.00 1 1010.4
20260504010626 73 169 2.0 2.0 0.00 0.00 0.00 1 1010.4
20260504010122 73 168 2.0 2.0 0.00 0.00 0.00 1 1010.4
20260504005619 73 193 4.0 5.0 0.00 0.00 0.00 1 1010.4
20260504005116 74 197 4.0 6.0 0.00 0.00 0.00 1 1010.4
20260504004614 74 174 3.0 3.0 0.00 0.00 0.00 1 1010.3
20260504004111 74 196 3.0 3.0 0.00 0.00 0.00 1 1010.3
20260504003607 75 189 3.0 5.0 0.00 0.00 0.00 1 1010.3
20260504003103 75 183 4.0 5.0 0.00 0.00 0.00 1 1010.4
20260504002600 75 173 4.0 5.0 0.00 0.00 0.00 1 1010.5
20260504002058 76 160 2.0 2.0 0.00 0.00 0.00 1 1010.4
20260504001555 76 185 3.0 5.0 0.00 0.00 0.00 1 1010.4
20260504001051 77 185 3.0 3.0 0.00 0.00 0.00 1 1010.4
20260504000548 77 202 3.0 5.0 0.00 0.00 0.00 1 1010.3
20260504000046 77 143 3.0 5.0 0.00 0.00 0.00 1 1010.5
20260503235544 77 186 4.0 5.0 0.00 0.00 0.00 1 1010.3
20260503235041 77 233 7.0 8.0 0.00 0.00 0.00 1 1010.5
20260503234538 78 210 4.0 5.0 0.00 0.00 0.00 1 1010.5
20260503234037 78 227 6.0 7.0 0.00 0.00 0.00 1 1010.5
20260503233532 78 204 4.0 5.0 0.00 0.00 0.00 1 1010.4
20260503233029 78 174 3.0 3.0 0.00 0.00 0.00 1 1010.3
20260503232526 78 134 10.0 11.0 0.00 0.00 0.00 1 1010.4
20260503232023 79 202 9.0 11.0 0.00 0.00 0.00 1 1010.4
20260503231521 79 172 4.0 6.0 0.00 0.00 0.00 1 1010.5
20260503231018 79 188 4.0 6.0 0.00 0.00 0.00 1 1010.5
20260503230514 78 194 3.0 5.0 0.00 0.00 0.00 1 1010.6
20260503230012 78 195 7.0 8.0 0.00 0.00 0.00 1 1010.6
20260503225508 78 193 8.0 9.0 0.00 0.00 0.00 1 1010.6
20260503224958 79 226 6.0 8.0 0.00 0.00 0.00 1 1010.7
20260503224456 78 208 5.0 6.0 0.00 0.00 0.00 1 1010.7
20260503223953 78 247 10.0 13.0 0.00 0.00 0.00 1 1010.6
20260503223451 79 191 6.0 8.0 0.00 0.00 0.00 1 1010.6
20260503222946 78 179 4.0 6.0 0.00 0.00 0.00 1 1010.5
20260503222445 78 189 6.0 7.0 0.00 0.00 0.00 1 1010.6
20260503221943 78 215 11.0 16.0 0.00 0.00 0.00 1 1010.6
20260503221441 78 176 8.0 10.0 0.00 0.00 0.00 1 1010.5
20260503220937 79 179 3.0 3.0 0.00 0.00 0.00 1 1010.6
20260503220433 79 208 6.0 8.0 0.00 0.00 0.00 1 1010.8
20260503215931 78 241 9.0 10.0 0.00 0.00 0.00 1 1010.6
20260503215427 78 221 13.0 15.0 0.00 0.00 0.00 1 1010.9
20260503214925 78 210 7.0 8.0 0.00 0.00 0.00 1 1010.8
20260503214423 78 220 8.0 9.0 0.00 0.00 0.00 1 1010.9
20260503213920 78 216 11.0 14.0 0.00 0.00 0.00 1 1010.9
20260503213418 78 237 10.0 14.0 0.00 0.00 0.00 1 1011.0
20260503212914 78 209 12.0 15.0 0.00 0.00 0.00 1 1010.8
20260503212412 78 193 11.0 15.0 0.00 0.00 0.00 1 1011.1
20260503211909 77 180 4.0 6.0 0.00 0.00 0.00 1 1011.1
20260503211405 77 214 8.0 9.0 0.00 0.00 0.00 1 1010.8
20260503210900 77 221 7.0 9.0 0.00 0.00 0.00 1 1011.0
20260503210358 78 218 10.0 11.0 0.00 0.00 0.00 1 1011.2
20260503205852 78 223 5.0 7.0 0.00 0.00 0.00 1 1011.3